Temp
5 5 5 4 4 6 5 5 5 5 5 6 6 6 6 6 6 7 7 8 8 8 8 8 8 9 9 8 8 8 8 8 7 7 7 6 6 6 6 6 5 5 5
5 5 5 5 5 5 6 5 5 5 5 5 5 6 6 6 6 7 7 7 8 8 8 8 8 8 8 8 8 8 8 8 7 7 7 6 6 6 6 5 5 5 4
5 5 5 5 4 4 4 5 4 4 4 5 5 5 5 6 6 6 7 7 7 7 8 8 8 8 8 8 8 8 8 7 7 7 6 6 6 5 5 5 5 5 4
5 5 5 5 5 4 5 5 4 4 4 4 5 5 5 5 6 6 6 7 7 7 7 8 8 8 8 8 8 8 7 7 7 7 6 6 6 5 5 5 5 4 4
5 5 4 4 4 4 5 4 4 4 5 3 4 5 5 5 6 6 6 6 7 7 7 8 8 8 8 8 7 7 7 7 7 6 6 6 5 5 5 5 4 4 4
5 4 5 4 5 4 4 4 4 4 3 4 4 4 5 5 5 6 6 6 6 7 7 7 8 8 7 7 7 7 7 7 7 6 6 6 6 5 5 4 4 4 4
5 5 4 4 4 4 4 4 4 4 3 3 4 3 4 5 5 6 6 6 6 7 7 7 7 7 7 7 7 7 7 7 6 6 6 6 5 5 4 4 4 4 3
5 4 5 3 4 4 4 3 4 4 3 4 4 3 4 4 5 6 5 6 6 6 7 7 7 7 7 7 7 7 7 7 6 6 6 6 6 5 4 4 4 3 3
5 4 4 3 3 3 3 4 4 4 4 4 4 4 4 5 5 5 5 5 6 6 7 7 7 7 7 7 7 7 7 7 6 6 6 6 6 5 5 4 4 3 3
5 4 5 4 3 3 4 3 3 4 4 4 3 3 3 4 5 5 4 4 5 5 6 6 7 7 7 7 7 7 7 6 6 6 5 5 5 5 5 4 4 3 3
4 4 4 4 3 3 5 3 3 3 4 4 3 3 3 4 4 4 4 4 4 5 5 6 6 7 7 7 7 7 6 6 6 5 5 5 5 5 5 4 4 3 2
4 4 3 3 4 4 5 3 2 3 3 3 2 2 3 4 5 4 3 3 3 4 5 5 6 6 7 7 7 6 6 6 5 5 5 5 5 4 4 4 4 3 3
4 4 3 4 4 3 4 3 3 3 3 1 2 3 3 3 3 3 3 4 4 4 4 5 6 6 6 6 6 6 6 5 5 5 5 5 5 4 4 4 4 3 3
4 4 4 3 3 3 3 3 3 3 3 3 2 3 3 3 3 3 3 3 4 4 4 5 5 5 6 6 6 6 6 5 5 5 5 4 4 4 4 4 3 3 3
4 4 4 3 3 4 3 3 3 3 3 3 2 3 3 3 2 3 3 3 3 4 4 4 4 5 5 5 5 5 5 5 4 4 4 4 4 4 4 3 3 3 3
3 3 3 3 3 3 3 4 3 3 3 2 1 3 3 3 3 2 3 3 3 3 4 4 4 4 4 4 4 5 4 4 4 4 4 4 4 4 3 3 3 3 3
2 3 3 2 2 3 3 3 3 2 3 3 2 1 3 3 2 2 3 3 3 3 4 3 3 3 3 3 4 4 4 4 4 4 4 3 3 3 3 3 3 3 3
2 2 1 2 2 3 3 3 4 4 3 3 3 2 2 1 1 2 3 3 3 2 3 3 2 2 2 2 3 3 4 3 3 3 4 3 3 3 3 3 3 3 2
1 2 2 2 2 2 2 3 3 2 3 3 3 3 2 3 3 3 2 3 3 3 2 2 2 2 2 2 3 3 3 3 3 3 3 3 3 3 3 2 2 2 2
1 2 1 1 1 1 1 2 3 3 3 3 3 3 3 2 3 2 2 3 2 2 1 2 2 3 2 2 3 3 3 2 3 3 3 3 3 3 3 3 2 2 2
3 3 2 2 2 1 0 1 1 2 2 3 3 3 3 3 3 2 2 2 3 2 2 2 1 2 2 2 3 3 3 2 3 3 3 3 2 3 3 2 2 1 2
2 3 3 3 2 2 2 1 1 2 3 3 2 3 3 3 3 2 1 2 2 2 1 1 2 2 2 3 3 2 2 2 3 3 2 2 2 2 2 2 2 1 1
2 3 3 2 1 1 2 3 2 1 1 2 3 2 3 4 3 1 2 1 0 1 0 1 1 2 3 3 3 2 2 2 2 2 2 2 2 2 3 2 2 1 1
1 1 1 1 1 1 1 3 1 1 -0 1 1 2 2 3 3 3 3 1 2 2 2 2 2 2 3 3 3 3 2 2 2 3 3 3 3 3 2 2 2 1 1
0 0 1 1 1 1 0 1 1 -0 1 2 0 -1 -0 2 1 1 1 1 2 2 2 2 2 1 2 2 2 3 3 3 3 3 3 3 4 3 2 2 2 1 1
-1 1 1 1 1 2 2 2 1 1 1 1 1 1 0 1 0 1 1 2 2 2 2 2 1 1 2 2 3 2 2 3 3 3 4 3 3 3 2 2 2 1 1
Height
3135 3132 3138 3141 3146 3152 3156 3160 3163 3167 3170 3173 3175 3177 3179 3182 3183 3183 3184 3185 3187 3189 3190 3192 3194 3195 3196 3198 3198 3198 3199 3199 3199 3198 3198 3197 3196 3196 3196 3195 3195 3194 3193
3132 3133 3135 3138 3140 3147 3153 3157 3161 3165 3167 3170 3173 3175 3177 3180 3181 3182 3183 3184 3186 3188 3190 3191 3193 3195 3197 3198 3198 3199 3200 3200 3200 3199 3199 3198 3197 3197 3196 3195 3194 3194 3193
3129 3128 3132 3133 3140 3143 3148 3153 3157 3161 3164 3167 3171 3173 3176 3178 3180 3181 3181 3182 3185 3187 3189 3191 3192 3194 3196 3197 3198 3199 3200 3200 3200 3200 3199 3198 3197 3196 3196 3195 3194 3193 3193
3125 3127 3128 3130 3135 3139 3143 3149 3151 3155 3159 3164 3168 3171 3173 3176 3178 3179 3179 3180 3183 3185 3187 3189 3191 3192 3194 3196 3198 3199 3200 3200 3200 3200 3199 3198 3197 3196 3195 3195 3194 3193 3193
3121 3125 3127 3125 3130 3133 3138 3144 3147 3151 3156 3159 3164 3168 3171 3173 3175 3176 3177 3178 3181 3184 3186 3188 3189 3191 3193 3195 3197 3198 3199 3200 3199 3199 3199 3197 3196 3195 3194 3194 3193 3193 3192
3117 3118 3119 3122 3124 3130 3134 3138 3141 3147 3151 3153 3158 3164 3167 3170 3172 3174 3174 3176 3178 3181 3183 3185 3187 3189 3191 3193 3195 3197 3198 3198 3199 3198 3198 3197 3196 3195 3194 3193 3192 3192 3191
3113 3115 3115 3112 3120 3124 3129 3131 3134 3139 3142 3147 3152 3158 3162 3165 3168 3171 3172 3173 3175 3178 3180 3183 3185 3187 3189 3191 3193 3195 3196 3197 3197 3197 3197 3196 3195 3193 3193 3192 3191 3191 3190
3107 3110 3112 3114 3113 3119 3122 3126 3128 3133 3138 3143 3147 3152 3156 3161 3163 3167 3170 3171 3173 3175 3177 3180 3182 3185 3187 3189 3191 3193 3195 3195 3196 3196 3196 3195 3195 3193 3192 3191 3190 3189 3188
3101 3102 3106 3105 3111 3116 3117 3118 3121 3124 3130 3135 3141 3146 3149 3154 3161 3164 3167 3168 3170 3172 3174 3177 3179 3182 3184 3186 3188 3190 3192 3193 3194 3194 3194 3193 3193 3192 3191 3190 3189 3188 3187
3096 3097 3099 3103 3104 3108 3110 3112 3116 3118 3123 3129 3134 3139 3146 3154 3157 3160 3163 3165 3166 3169 3171 3173 3175 3178 3181 3183 3185 3187 3189 3190 3191 3191 3191 3191 3191 3190 3190 3188 3187 3186 3185
3090 3093 3093 3097 3100 3103 3105 3105 3108 3112 3118 3123 3129 3134 3139 3147 3151 3156 3159 3162 3163 3165 3167 3169 3172 3174 3177 3179 3182 3184 3185 3186 3188 3188 3188 3188 3188 3188 3188 3187 3186 3185 3183
3084 3085 3087 3085 3094 3099 3101 3102 3105 3108 3113 3119 3124 3130 3137 3144 3149 3152 3156 3158 3159 3161 3163 3164 3167 3170 3172 3175 3177 3179 3181 3183 3184 3185 3186 3186 3186 3186 3186 3185 3183 3182 3180
3077 3081 3082 3084 3082 3089 3096 3100 3102 3106 3111 3116 3120 3128 3134 3137 3142 3147 3149 3153 3155 3157 3158 3160 3163 3166 3169 3171 3173 3175 3177 3179 3180 3182 3183 3183 3184 3183 3183 3183 3181 3179 3177
3071 3074 3077 3080 3079 3086 3090 3095 3098 3101 3107 3112 3116 3122 3127 3130 3134 3140 3142 3146 3150 3152 3154 3157 3160 3162 3164 3167 3169 3171 3174 3175 3176 3178 3179 3180 3181 3181 3180 3180 3179 3177 3175
3064 3067 3069 3073 3076 3077 3083 3087 3091 3095 3100 3103 3108 3114 3119 3123 3126 3131 3137 3140 3144 3147 3150 3153 3156 3157 3160 3162 3164 3167 3169 3172 3173 3174 3175 3176 3178 3177 3177 3176 3175 3173 3172
3054 3059 3062 3065 3069 3071 3066 3074 3082 3086 3089 3091 3097 3105 3108 3114 3118 3123 3128 3132 3137 3141 3144 3148 3150 3152 3154 3156 3159 3161 3164 3165 3168 3170 3171 3172 3173 3173 3172 3172 3171 3169 3168
3047 3052 3054 3058 3059 3063 3067 3062 3072 3076 3081 3085 3086 3091 3099 3104 3109 3116 3120 3124 3128 3133 3136 3141 3144 3145 3147 3150 3153 3156 3158 3160 3162 3165 3165 3166 3167 3168 3167 3166 3165 3165 3164
3037 3043 3047 3052 3055 3056 3055 3061 3067 3069 3073 3075 3080 3083 3088 3095 3100 3105 3109 3115 3118 3123 3128 3134 3137 3139 3141 3143 3146 3149 3151 3154 3156 3158 3160 3161 3161 3161 3161 3160 3160 3160 3159
3028 3033 3038 3040 3044 3048 3050 3049 3053 3062 3065 3069 3073 3078 3082 3086 3090 3096 3099 3103 3108 3113 3117 3124 3130 3131 3134 3137 3140 3143 3145 3146 3149 3152 3153 3154 3155 3155 3155 3155 3154 3153 3153
3020 3024 3028 3029 3034 3037 3041 3043 3042 3053 3058 3062 3067 3070 3074 3076 3080 3086 3089 3092 3096 3101 3107 3114 3119 3123 3126 3130 3132 3135 3138 3139 3142 3144 3146 3146 3146 3148 3148 3148 3147 3147 3145
3011 3016 3020 3021 3026 3030 3032 3036 3038 3042 3046 3052 3057 3061 3065 3068 3070 3074 3079 3082 3087 3090 3095 3103 3108 3113 3117 3121 3126 3129 3132 3133 3135 3137 3138 3139 3140 3140 3141 3140 3140 3139 3138
3002 3006 3010 3014 3018 3023 3020 3027 3029 3033 3037 3041 3045 3049 3053 3059 3062 3065 3069 3072 3075 3077 3083 3092 3100 3104 3109 3115 3118 3122 3124 3124 3127 3130 3129 3131 3130 3131 3132 3132 3132 3131 3130
2994 2997 3000 3003 3008 3010 3010 3010 3017 3018 3024 3031 3037 3039 3043 3047 3052 3054 3058 3063 3065 3069 3076 3085 3090 3094 3102 3107 3111 3111 3113 3114 3118 3119 3119 3120 3122 3123 3123 3124 3124 3123 3122
2984 2988 2991 2993 2997 2999 3000 3002 3009 3012 3014 3015 3020 3027 3034 3038 3041 3045 3048 3052 3057 3062 3068 3075 3080 3087 3092 3097 3101 3103 3102 3102 3104 3108 3110 3109 3113 3115 3116 3115 3115 3114 3113
2974 2979 2982 2985 2988 2991 2992 2994 2998 3003 3001 3008 3014 3018 3020 3019 3030 3036 3034 3044 3048 3052 3059 3064 3071 3076 3080 3085 3088 3090 3089 3091 3094 3100 3101 3100 3104 3104 3106 3106 3106 3105 3104
2964 2969 2973 2976 2980 2983 2985 2988 2991 2992 2995 3000 3004 3010 3014 3013 3016 3023 3028 3034 3038 3043 3049 3055 3058 3061 3067 3071 3074 3076 3080 3081 3083 3086 3092 3090 3094 3095 3093 3095 3095 3096 3095
Wind_Speed
22 22 28 28 38 33 29 25 24 22 20 18 17 15 14 12 11 10 10 15 18 18 19 19 18 17 16 14 13 11 9 8 7 6 5 4 3 4 5 6 7 8 9
23 30 21 27 40 34 31 28 24 24 21 20 19 17 16 15 13 11 11 17 19 19 19 20 19 17 16 15 14 11 9 7 7 6 5 4 4 3 3 4 5 6 7
24 33 21 27 34 30 32 32 30 28 24 22 22 19 18 17 14 12 13 18 19 19 20 20 19 18 17 15 13 11 8 6 5 5 6 4 4 3 4 4 5 5 6
26 31 27 18 27 38 33 28 33 32 29 26 24 23 21 19 17 14 13 18 19 20 20 21 20 19 18 15 13 11 9 5 4 3 6 6 4 4 4 5 5 6 6
27 32 29 32 18 33 34 29 30 32 31 29 28 26 23 22 19 16 15 18 20 21 21 21 21 20 19 16 14 12 9 6 3 2 3 6 5 5 6 6 6 7 7
23 23 33 34 34 30 34 35 36 33 31 35 32 29 26 25 20 18 16 17 20 21 22 22 22 21 20 18 16 14 12 8 5 1 2 5 6 6 7 7 8 8 8
23 24 29 28 31 27 34 24 42 34 41 37 39 32 31 28 23 20 18 16 18 21 22 23 23 22 21 19 17 16 14 11 7 4 2 4 6 7 8 9 9 10 10
25 26 29 26 30 28 29 36 37 38 47 43 38 35 34 31 27 21 18 16 16 19 21 23 23 23 22 20 18 17 15 12 9 6 3 4 8 8 8 9 10 11 12
21 27 32 25 27 25 21 25 35 48 51 47 46 39 36 33 25 21 17 15 14 16 20 23 23 24 23 22 20 18 17 14 12 9 6 4 5 7 8 9 11 13 14
28 24 25 30 31 23 23 28 40 43 56 46 43 44 37 30 27 21 18 15 15 15 18 20 22 24 24 23 21 19 18 17 14 11 8 5 4 5 8 10 12 15 16
29 27 23 34 26 25 19 25 43 39 45 48 48 44 41 33 32 23 15 14 15 15 17 20 21 22 23 23 22 20 20 18 16 14 11 9 6 6 7 9 11 16 17
32 29 23 37 29 28 21 12 35 46 42 43 40 38 38 32 31 21 17 14 14 17 19 21 21 20 21 22 23 22 21 19 17 15 14 12 9 7 8 8 13 15 18
35 33 25 22 32 30 28 29 25 23 35 34 41 39 38 35 33 29 26 21 19 19 22 22 21 22 22 22 23 23 22 20 18 17 16 14 12 11 9 13 15 16 17
36 33 28 26 23 31 31 33 30 33 35 43 45 44 43 40 38 38 31 26 26 24 25 22 21 22 22 22 23 24 23 21 20 18 17 16 14 14 13 14 15 16 19
38 39 34 30 29 34 38 36 41 30 36 38 45 47 48 46 44 40 33 32 29 27 26 25 22 22 22 23 24 24 23 23 22 20 19 18 17 18 18 16 19 19 20
43 34 42 37 30 31 33 37 43 32 39 43 46 51 50 52 49 41 35 31 32 31 30 28 26 25 25 25 25 25 24 25 24 22 21 21 20 21 21 21 23 22 22
47 50 37 44 35 38 40 47 43 35 37 35 47 51 55 57 53 42 40 40 39 37 35 33 30 30 29 28 26 26 25 26 25 24 24 23 22 22 24 23 23 22 23
46 45 46 43 40 35 38 33 41 42 37 35 31 29 48 50 58 47 42 44 44 46 39 36 34 31 31 29 28 29 28 28 27 26 25 26 25 25 25 25 27 24 25
47 37 47 46 52 40 35 31 33 36 39 39 40 41 39 40 45 49 48 43 42 51 48 44 39 34 34 32 30 31 31 30 28 27 28 27 27 27 27 27 28 28 27
34 37 52 44 49 61 41 33 33 39 38 42 40 42 48 50 48 34 43 46 48 46 46 48 44 42 39 36 35 34 34 29 29 30 28 29 30 29 30 29 27 27 29
32 31 30 37 42 48 50 37 36 46 40 42 45 47 43 43 47 40 36 43 54 54 47 52 48 45 42 41 40 35 35 32 33 30 29 30 32 29 27 26 28 28 30
34 34 34 33 37 32 36 51 40 40 37 43 44 44 47 46 38 36 40 43 46 58 50 53 41 46 37 42 39 38 37 35 35 32 33 33 34 34 31 31 30 31 29
33 34 36 34 32 30 26 31 45 38 42 38 47 44 49 48 46 40 40 47 37 39 41 37 40 39 38 39 40 41 39 37 37 37 40 39 38 37 36 33 33 36 33
34 35 33 31 30 30 29 30 31 29 41 21 25 45 50 52 47 44 39 38 40 41 42 43 42 40 38 37 42 44 38 41 46 44 43 44 40 38 37 36 35 37 37
35 37 36 34 33 34 32 29 31 27 26 37 31 36 38 39 45 42 40 46 46 49 47 47 44 43 43 41 43 46 45 48 49 46 45 46 42 41 40 39 38 39 38
28 36 37 38 39 38 37 37 34 31 31 34 33 33 40 29 36 40 46 49 51 55 54 50 50 49 48 48 49 48 48 50 50 48 45 48 45 42 45 42 41 38 38
Wind_Direction
250 200 209 218 202 200 203 203 202 204 207 208 213 209 212 218 220 221 212 189 181 174 169 164 162 159 157 154 143 132 122 108 90 80 80 82 73 57 46 40 42 39 36
248 234 244 219 210 205 198 205 207 206 208 206 215 212 213 215 216 216 203 187 182 177 174 169 166 166 167 163 154 144 134 119 96 72 65 61 54 37 24 21 24 28 26
255 236 256 223 209 222 205 211 209 211 209 206 214 214 214 216 214 211 199 188 185 181 179 175 172 173 174 173 165 157 146 131 110 82 59 53 44 21 356 350 358 2 10
248 228 235 232 232 223 212 217 209 206 208 211 214 217 214 214 214 208 196 190 189 186 185 182 179 180 181 180 176 169 164 146 124 80 49 32 22 4 342 333 335 338 350
252 238 243 216 239 217 217 222 219 230 212 210 211 217 216 213 211 207 195 193 192 192 190 189 187 189 187 185 186 182 179 173 162 87 39 22 6 347 335 331 331 331 334
256 257 247 226 229 228 233 230 228 220 227 221 206 213 215 214 211 210 201 195 196 196 197 195 196 196 195 193 193 192 189 188 192 178 356 8 356 340 328 327 329 322 318
248 255 250 241 260 229 238 241 217 238 208 219 208 210 218 213 210 210 208 199 201 201 201 203 204 204 203 202 201 200 198 197 203 207 288 342 338 330 328 327 327 321 315
242 248 234 245 241 243 233 245 240 214 217 221 215 209 214 213 209 208 212 206 205 207 207 209 210 212 211 209 208 208 205 206 210 218 259 316 330 331 330 327 322 318 312
258 248 248 238 221 235 255 262 231 222 225 213 218 213 211 215 206 207 209 215 213 214 212 215 216 218 218 216 213 212 210 211 214 223 241 285 327 329 331 330 326 321 315
255 260 242 239 242 246 257 237 214 219 216 216 223 215 215 218 210 203 210 222 223 222 220 221 221 223 223 220 218 216 212 214 217 221 230 251 305 334 338 344 344 334 323
251 246 251 237 242 236 250 234 212 214 214 222 219 212 209 212 210 202 207 221 232 231 228 223 227 225 224 223 220 219 216 215 218 223 228 238 268 316 345 345 350 351 339
249 251 251 236 237 241 224 207 208 216 217 218 214 209 217 215 212 204 221 227 237 234 233 227 223 223 221 220 220 220 219 218 222 226 231 240 256 286 309 332 344 335 339
237 242 248 243 243 228 232 224 232 228 217 223 218 224 219 214 219 216 219 220 232 234 234 230 226 224 223 222 222 221 219 220 225 233 235 245 255 277 292 308 317 335 328
237 239 241 240 243 251 237 233 237 234 231 222 224 228 220 221 222 220 235 221 225 229 235 234 230 228 224 221 223 224 224 224 228 236 240 247 255 269 282 298 310 308 320
236 241 241 244 244 251 231 229 235 242 232 234 229 227 228 225 228 226 223 219 222 227 233 232 230 228 225 223 223 226 226 231 233 237 243 250 258 267 280 285 292 295 309
241 238 243 244 239 235 251 248 227 236 238 235 232 229 233 230 229 234 226 225 226 226 228 227 226 224 224 224 224 227 227 233 236 241 246 253 261 270 278 278 285 292 308
251 247 233 255 255 237 239 244 243 241 237 244 243 229 229 229 232 233 229 229 230 227 226 222 222 223 223 227 228 232 233 237 238 242 248 254 260 270 273 273 286 289 302
246 247 251 246 235 251 259 248 234 244 248 236 230 228 228 233 230 229 248 238 247 226 226 220 223 223 226 226 230 234 237 238 243 246 252 255 261 265 272 273 281 282 296
236 244 244 249 251 242 247 260 232 239 240 238 233 231 224 233 234 242 238 244 242 234 231 226 222 222 226 226 230 236 240 241 244 250 255 259 264 264 270 275 284 289 290
242 242 237 238 251 254 255 251 247 241 245 238 233 240 242 243 244 245 244 236 229 234 217 227 224 222 225 227 230 234 237 241 248 253 256 261 264 265 270 279 280 285 284
246 242 233 236 245 253 272 258 256 234 242 244 239 237 240 244 240 238 241 240 231 237 240 219 225 228 227 228 234 237 243 247 253 254 256 260 265 269 273 271 278 283 282
242 240 240 240 233 253 252 241 258 239 237 244 244 242 242 242 245 244 255 242 241 234 237 218 232 234 233 227 236 240 244 248 252 254 258 258 262 269 272 276 284 277 281
240 237 235 236 237 248 251 262 267 279 251 249 245 242 245 244 251 252 244 242 229 232 208 232 233 235 234 234 236 238 242 247 252 254 257 257 260 266 273 278 278 285 280
238 240 239 242 243 246 255 252 259 273 273 246 273 242 240 256 248 245 248 222 220 215 227 228 231 237 241 239 240 247 248 248 249 252 257 262 265 270 271 275 277 278 280
229 238 240 241 238 239 246 250 261 261 275 278 273 269 278 253 248 247 241 228 229 230 229 228 235 241 243 242 243 242 243 248 251 255 258 263 266 270 272 274 277 278 277
228 233 237 237 238 240 242 242 249 250 252 249 253 269 275 246 250 253 247 239 239 238 238 235 238 239 241 244 245 246 249 251 253 255 258 264 267 269 271 273 274 276 281